sat.trackr.live / text

‹ back to catalog

STARLINK-35265

NORAD 65748 · 2025-216Q

PAYLOAD ACTIVE UNKNOWN

§ Identity

Operator
Country
US
Launch date
2025-09-25
Launch site
AFETR
Launch vehicle
Mass (kg)
RCS (m²)

Purposes: comms

External: N2YO · Heavens-Above · Gunter

§ Orbital elements

Epoch: 2026-05-24T22:01:59.674656Z

Period
94.11 min
Inclination
53.1606°
Eccentricity
0.0000902
Mean motion
15.30194828 rev/d
Perigee alt
474.6 km
Apogee alt
475.8 km
Semi-major
6,853.4 km
B*
8.1784e-4
RAAN
338.8806°
Arg perigee
104.0189°
Mean anomaly
256.0912°
Rev number
3,713

§ Raw data

STARLINK-352651 65748U 25216Q   26144.91805179  .00023937  00000+0  81784-3 0  99972 65748  53.1606 338.8806 0000902 104.0189 256.0912 15.30194828 37133

JSON: /api/v1/satellites/65748 · /tle

For live sub-satellite position, see the globe view (requires WebGL).

§ Visibility from observer

Set your observer location to see the next 7 days of passes ≥ 10°. The values pass through the URL so the page stays shareable.

No JS? Fill the form by hand. The geolocation button needs JavaScript.